Waarnemingen

Advertentie
Mijn weer
Lulea/Kallax, Zweden (2186): temperatuur & dauwpunt: 11.08.2018 13:00:00 - 17.08.2018 13:00:00 (CEST)Lulea/Kallax, Zweden (2186): windsnelheid & windstoten: 11.08.2018 13:00:00 - 17.08.2018 13:00:00 (CEST)Lulea/Kallax, Zweden (2186): windrichting: 11.08.2018 13:00:00 - 17.08.2018 13:00:00 (CEST)Lulea/Kallax, Zweden (2186): luchtdruk: 11.08.2018 13:00:00 - 17.08.2018 13:00:00 (CEST)Lulea/Kallax, Zweden (2186): zicht: 11.08.2018 13:00:00 - 17.08.2018 13:00:00 (CEST)Lulea/Kallax, Zweden (2186): neerslag: 11.08.2018 13:00:00 - 17.08.2018 13:00:00 (CEST)
Datum & Tijd tt [°C] td [°C] ff [km/u] ff [kn] fx [km/u] fx [kn] dd ppp [hPa] vv [km] rr [mm]
17.08.2018 13:00:00 16,8 15,0 34 18 58 31 Z 1006,1 10 0,0
17.08.2018 12:00:00 17,2 15,4 37 20 54 29 Z 1006,2 10 0,0
17.08.2018 11:00:00 17,0 15,2 37 20 61 33 Z 1006,7 10 0,0
17.08.2018 10:00:00 17,1 15,3 35 19 54 29 Z 1006,9 10 0,0
17.08.2018 09:00:00 17,0 15,2 35 19 54 29 Z 1007,0 10 0,0
17.08.2018 08:00:00 16,5 14,9 31 17 54 29 Z 1007,3 10 0,0
17.08.2018 07:00:00 16,4 14,9 31 17 43 23 Z 1007,4 10 0,0
17.08.2018 06:00:00 16,0 14,7 28 15 40 21 Z 1007,6 10 0,0
17.08.2018 05:00:00 16,0 14,9 28 15 47 25 Z 1008,1 10 0,0
17.08.2018 04:00:00 16,0 14,9 28 15 43 23 Z 1008,5 10 0,0
17.08.2018 03:00:00 16,0 14,9 28 15 40 21 Z 1008,7 10 0,0
17.08.2018 02:00:00 15,8 14,7 28 15 40 21 Z 1009,0 10 0,0
17.08.2018 01:00:00 15,8 14,5 22 12 32 18 Z 1009,4 10 0,0
17.08.2018 00:00:00 15,8 14,3 18 10 36 19 Z 1009,7 10 0,0
16.08.2018 23:00:00 16,0 14,4 26 14 36 19 Z 1009,9 10 0,0
16.08.2018 22:00:00 15,7 14,2 24 13 36 19 Z 1010,0 10 0,0
16.08.2018 21:00:00 15,7 14,2 24 13 36 19 Z 1010,0 10 0,0
16.08.2018 20:00:00 16,0 14,0 22 12 36 19 Z 1010,5 10 0,0
16.08.2018 19:00:00 16,3 14,0 24 13 40 21 Z 1010,8 10 0,0
16.08.2018 18:00:00 16,5 13,8 28 15 40 21 Z 1011,1 10 0,0
16.08.2018 17:00:00 16,7 13,8 26 14 43 23 Z 1011,4 10 0,0
16.08.2018 16:00:00 17,3 13,6 28 15 43 23 Z 1011,9 10 0,0
16.08.2018 15:00:00 16,5 13,2 26 14 40 21 Z 1012,1 10 0,0
16.08.2018 14:00:00 15,9 13,0 21 11 36 19 Z 1012,3 10 0,0
16.08.2018 13:00:00 15,8 13,1 21 11 40 21 Z 1012,4 10 0,0
16.08.2018 12:00:00 16,1 12,8 22 12 40 21 Z 1012,7 10 0,0
16.08.2018 11:00:00 16,2 12,6 26 14 32 18 Z 1012,9 10 0,0
16.08.2018 10:00:00 15,6 11,8 21 11 32 18 Z 1012,9 10 0,0
16.08.2018 09:00:00 15,5 11,3 18 10 25 14 Z 1013,0 10 0,0
16.08.2018 08:00:00 15,7 11,1 13 7 22 12 Z 1012,7 10 0,0
16.08.2018 07:00:00 14,1 11,3 11 6 18 10 ZZO 1012,7 10 0,0
16.08.2018 06:00:00 14,1 12,0 8 4 11 6 Z 1012,9 10 0,0
16.08.2018 05:00:00 13,8 11,3 9 5 14 8 Z 1012,9 10 0,0
16.08.2018 04:00:00 11,6 10,7 2 1 7 4 - 1012,9 10 0,0
16.08.2018 03:00:00 11,9 10,8 2 1 11 6 - 1013,0 10 0,0
16.08.2018 02:00:00 12,6 10,0 8 4 11 6 Z 1013,3 10 0,0
16.08.2018 01:00:00 13,0 9,6 8 4 14 8 Z - 10 0,0
16.08.2018 00:00:00 13,6 9,3 9 5 11 6 ZZO 1013,3 10 0,0
15.08.2018 23:00:00 14,0 9,2 9 5 18 10 Z - 10 0,0
15.08.2018 22:00:00 14,2 9,2 9 5 14 8 ZO 1013,1 10 0,0
15.08.2018 21:00:00 13,4 8,2 8 4 11 6 Z 1013,2 10 0,0
15.08.2018 20:00:00 13,1 8,0 8 4 18 10 Z - 10 0,0
15.08.2018 19:00:00 14,8 8,3 11 6 22 12 ZZO 1012,9 10 0,0
15.08.2018 18:00:00 15,1 8,1 13 7 25 14 ZZO 1013,0 10 0,0
15.08.2018 17:00:00 15,3 9,0 15 8 25 14 ZZO 1013,1 10 0,0
15.08.2018 16:00:00 14,9 8,4 15 8 22 12 ZZO 1013,2 10 0,0
15.08.2018 15:00:00 15,2 8,4 16 9 25 14 ZZO 1013,0 10 0,0
15.08.2018 14:00:00 15,5 7,8 15 8 25 14 Z 1012,9 10 0,0
15.08.2018 13:00:00 15,4 9,1 18 10 29 16 ZZO 1012,6 10 0,0
15.08.2018 12:00:00 15,5 10,1 21 11 29 16 ZZO 1012,5 10 0,0
15.08.2018 11:00:00 13,9 9,9 18 10 22 12 ZZO 1012,6 10 0,9
15.08.2018 10:00:00 14,4 9,2 13 7 18 10 ZZO 1012,4 10 0,0
15.08.2018 09:00:00 14,5 8,9 9 5 14 8 ZZO 1012,4 10 0,0
15.08.2018 08:00:00 14,1 9,5 5 3 11 6 ZO 1012,3 10 0,0
15.08.2018 07:00:00 12,6 10,7 0 0 4 2 N 1012,2 10 0,0
15.08.2018 06:00:00 9,6 9,0 2 1 7 4 - 1012,2 10 0,0
15.08.2018 05:00:00 6,5 5,4 5 3 7 4 NW 1012,1 10 0,0
15.08.2018 04:00:00 6,7 5,5 5 3 7 4 NW 1012,3 10 0,0
15.08.2018 03:00:00 7,0 6,3 4 2 4 2 NW 1012,4 10 0,0
15.08.2018 02:00:00 7,0 6,3 0 0 0 0 N 1012,2 10 0,0
15.08.2018 01:00:00 7,4 6,5 2 1 4 2 NW 1012,1 10 0,0
15.08.2018 00:00:00 7,9 6,8 0 0 7 4 N 1011,7 10 0,0
14.08.2018 23:00:00 8,9 7,3 0 0 4 2 N 1011,7 10 0,0
14.08.2018 22:00:00 10,1 8,0 0 0 11 6 N 1011,7 10 0,0
14.08.2018 21:00:00 12,4 8,7 4 2 11 6 Z 1011,5 10 0,0
14.08.2018 20:00:00 13,0 8,5 5 3 22 12 Z 1011,3 10 0,0
14.08.2018 19:00:00 13,2 8,3 9 5 18 10 Z 1011,0 10 0,0
14.08.2018 18:00:00 14,0 8,2 11 6 14 8 Z 1011,0 10 0,0
14.08.2018 17:00:00 14,1 8,7 11 6 22 12 Z 1010,8 10 0,0
14.08.2018 16:00:00 13,9 8,3 13 7 22 12 ZZW 1010,7 10 0,0
14.08.2018 15:00:00 13,9 7,4 9 5 18 10 Z 1010,6 10 0,0
14.08.2018 14:00:00 14,0 7,4 11 6 18 10 ZZO 1010,4 10 0,0
14.08.2018 13:00:00 14,2 6,3 8 4 18 10 ZO 1010,3 10 0,0
14.08.2018 12:00:00 14,8 7,1 8 4 22 12 N 1010,0 10 0,0
14.08.2018 11:00:00 13,5 7,0 9 5 18 10 N 1009,8 10 0,0
14.08.2018 10:00:00 13,0 7,2 8 4 14 8 NNO 1009,6 10 0,0
14.08.2018 09:00:00 12,2 7,3 8 4 18 10 N 1009,4 10 0,0
14.08.2018 08:00:00 11,2 6,7 9 5 18 10 N 1009,1 10 0,0
14.08.2018 07:00:00 10,8 6,9 9 5 14 8 NNW 1008,7 10 0,0
14.08.2018 06:00:00 10,1 6,8 8 4 14 8 NW 1008,5 10 0,0
14.08.2018 05:00:00 9,9 6,4 8 4 14 8 NNW 1008,1 10 0,0
14.08.2018 04:00:00 10,0 6,5 11 6 14 8 NNW 1007,8 10 0,0
14.08.2018 03:00:00 10,0 6,9 8 4 14 8 NNW 1007,5 10 0,0
14.08.2018 02:00:00 10,3 6,3 11 6 18 10 NNW 1006,9 10 0,0
14.08.2018 01:00:00 10,7 7,0 11 6 18 10 NNW 1006,5 10 0,0
14.08.2018 00:00:00 11,5 6,8 15 8 22 12 NNW 1006,0 10 0,0
13.08.2018 23:00:00 12,6 7,1 15 8 22 12 NNW 1005,6 10 0,0
13.08.2018 22:00:00 13,0 7,7 13 7 25 14 NNW 1005,4 10 0,0
13.08.2018 21:00:00 13,6 7,6 18 10 25 14 NNW 1004,9 10 0,0
13.08.2018 20:00:00 15,1 6,1 13 7 22 12 NNW 1004,1 10 0,0
13.08.2018 19:00:00 16,0 5,0 15 8 25 14 NNW 1003,6 10 0,0
13.08.2018 18:00:00 17,0 5,6 15 8 29 16 N 1003,4 10 0,0
13.08.2018 17:00:00 17,2 5,5 15 8 36 19 N 1003,0 10 0,0
13.08.2018 16:00:00 17,0 5,1 26 14 36 19 NNW 1002,6 10 0,0
13.08.2018 15:00:00 17,4 5,3 21 11 32 18 NNW 1002,2 10 0,0
13.08.2018 14:00:00 16,1 6,2 24 13 43 23 NNW 1002,1 10 0,0
13.08.2018 13:00:00 15,8 6,8 18 10 43 23 NNW 1001,6 10 0,0
13.08.2018 12:00:00 16,5 8,2 18 10 40 21 NNW 1001,1 10 0,0
13.08.2018 11:00:00 16,1 7,6 28 15 40 21 NNW 1000,5 10 0,0
13.08.2018 10:00:00 14,8 7,8 21 11 43 23 NNW 1000,2 10 0,0
13.08.2018 09:00:00 14,2 7,9 22 12 43 23 N 999,2 10 0,0
13.08.2018 08:00:00 12,8 7,7 24 13 40 21 NNW 998,9 10 0,0
13.08.2018 07:00:00 12,0 7,9 24 13 40 21 NNW 998,7 10 0,0
13.08.2018 06:00:00 12,1 8,6 22 12 36 19 NNW 998,1 10 0,0
13.08.2018 05:00:00 12,6 9,2 21 11 36 19 NNW 997,8 10 0,0
13.08.2018 04:00:00 12,8 10,5 21 11 32 18 NNW 997,7 10 0,0
13.08.2018 03:00:00 13,4 11,1 21 11 32 18 NNW 997,2 10 0,0
13.08.2018 02:00:00 13,6 10,9 16 9 29 16 NNW 997,0 10 0,0
13.08.2018 01:00:00 13,7 10,3 13 7 22 12 NNW 997,2 10 0,0
13.08.2018 00:00:00 13,7 9,5 9 5 14 8 WNW 997,1 10 0,0
12.08.2018 23:00:00 13,8 9,2 8 4 14 8 WNW 997,3 10 0,0
12.08.2018 22:00:00 14,3 9,1 8 4 18 10 W 997,5 10 0,0
12.08.2018 21:00:00 14,8 9,0 8 4 18 10 W 997,8 10 0,0
12.08.2018 20:00:00 15,8 8,8 8 4 14 8 WNW 998,2 10 0,0
12.08.2018 19:00:00 16,5 8,7 9 5 14 8 W 998,4 10 0,0
12.08.2018 18:00:00 16,3 7,8 11 6 25 14 W 998,9 10 0,0
12.08.2018 17:00:00 16,8 6,9 13 7 25 14 W 999,3 10 0,0
12.08.2018 16:00:00 17,0 6,8 21 11 29 16 W 999,4 10 0,0
12.08.2018 15:00:00 17,1 6,6 16 9 32 18 W 999,7 10 0,0
12.08.2018 14:00:00 17,4 6,3 18 10 36 19 W 1000,1 10 0,0
12.08.2018 13:00:00 17,0 6,5 18 10 32 18 W 1000,3 10 0,0
12.08.2018 12:00:00 16,7 6,8 21 11 36 19 W 1000,5 10 0,0
12.08.2018 11:00:00 16,8 6,9 16 9 32 18 W 1000,9 10 0,0
12.08.2018 10:00:00 15,0 6,8 16 9 25 14 W 1001,3 10 0,0
12.08.2018 09:00:00 14,3 6,9 16 9 29 16 W 1001,4 10 0,0
12.08.2018 08:00:00 13,3 6,9 16 9 29 16 W 1002,0 10 0,0
12.08.2018 07:00:00 12,1 6,4 11 6 22 12 W 1002,3 10 0,0
12.08.2018 06:00:00 11,1 6,4 11 6 22 12 W 1002,5 10 0,0
12.08.2018 05:00:00 10,7 6,3 8 4 22 12 W 1003,0 10 0,0
12.08.2018 04:00:00 10,9 6,1 15 8 25 14 W 1003,1 10 0,0
12.08.2018 03:00:00 11,6 6,1 13 7 32 18 W 1003,6 10 0,0
12.08.2018 02:00:00 12,1 5,9 18 10 32 18 WZW 1003,7 10 0,0
12.08.2018 01:00:00 12,6 6,0 18 10 36 19 W 1004,0 10 0,0
12.08.2018 00:00:00 13,3 5,7 21 11 36 19 W 1004,0 10 0,0
11.08.2018 23:00:00 13,8 5,7 15 8 43 23 W 1004,5 10 0,0
11.08.2018 22:00:00 14,6 5,4 22 12 43 23 W 1004,7 10 0,0
11.08.2018 21:00:00 15,6 6,3 22 12 50 27 W 1004,4 10 0,0
11.08.2018 20:00:00 16,9 6,7 26 14 54 29 W 1003,9 10 0,0
11.08.2018 19:00:00 18,0 7,1 29 16 47 25 WZW 1003,1 10 0,0
11.08.2018 18:00:00 18,7 7,8 28 15 54 29 WZW 1002,7 10 0,0
11.08.2018 17:00:00 18,5 8,2 29 16 58 31 ZW 1002,3 10 0,0
11.08.2018 16:00:00 18,4 8,6 29 16 54 29 ZW 1001,9 10 0,0
11.08.2018 15:00:00 18,4 8,9 28 15 50 27 WZW 1001,3 10 0,0
11.08.2018 14:00:00 18,2 9,8 28 15 47 25 ZZW 1000,8 10 0,0
11.08.2018 13:00:00 17,7 11,0 22 12 47 25 ZZW 1000,3 10 0,0

tt = temperatuur
td = dauwpunt
ff = windsnelheid
fx = windstoten
dd = windrichting
ppp = luchtdruk
vv = zicht
rr = neerslag

Weerstations in de omgeving